Flag for U.S.A. Weather past 2 weeks in Idaho Falls, Idaho, U.S.A.

Now
34 °F

Mostly cloudy.


Feels Like: 28 °F
Forecast: 30 / 37 °F
Wind: 7 mph from Southwest

Location: Fanning Field

Current Time: Dec 20, 2014 at 7:34:07 AM

Latest Report: Dec 20, 2014 at 6:53 AM


Visibility: 10 mi

Pressure: 30.11 "Hg

Humidity: 97%

Dew point: 33 °F

Location of Idaho FallsLocation

Historic Weather in Idaho Falls — Graph

°F

Idaho Falls temperature yesterday

Maximum temperature yesterday: 39 °F (at 12:53 PM)
Minimum temperature yesterday: 30 °F (at 5:53 AM)
Average temperature yesterday: 34 °F

Past Weeks' High & Low Weather Summary

 TemperatureHumidityPressure
High58 °F (Dec 12, 12:53 PM)100% (Dec 7, 8:53 AM)30.45 "Hg (Dec 7, 8:53 AM)
Low14 °F (Dec 17, 10:59 PM)33% (Dec 11, 2:53 PM)29.74 "Hg (Dec 13, 1:53 AM)
Average34 °F84%30.16 "Hg
* Reported Dec 5 5:53 AM — Dec 20 5:53 AM, Idaho Falls, Weather by CustomWeather, © 2014

Note: Actual official high and low records may vary slightly from our data, if they occured in-between our weather recording intervals... More about our weather records

Advertising

Idaho Falls weather history for previous 24 hours

 ConditionsComfort  
Time TempWeatherWind HumidityBarometerVisibility
5:53 AM
Dec 20
34 °FMostly cloudy.6 mph97%30.11 "Hg10 mi
4:53 AM34 °FLow clouds.7 mph97%30.10 "Hg10 mi
3:53 AM34 °FLow clouds.3 mph97%30.11 "Hg10 mi
2:53 AM35 °FOvercast.9 mph92%30.11 "Hg10 mi
1:53 AM34 °FMostly cloudy.6 mph97%30.12 "Hg10 mi
12:53 AM34 °FMostly cloudy.10 mph97%30.13 "Hg10 mi
11:53 PM
Dec 19
34 °FMostly cloudy.13 mph92%30.13 "Hg10 mi
10:53 PM34 °FMostly cloudy.10 mph92%30.13 "Hg8 mi
10:00 PM33 °FLight snow. Fog.8 mph96%30.08 "Hg3 mi
8:53 PM34 °FLight snow. Fog.13 mph92%30.14 "Hg3 mi
7:53 PM34 °FLight snow. Fog.14 mph92%30.12 "Hg3 mi
6:53 PM34 °FFog.16 mph92%30.12 "Hg6 mi
5:59 PM35 °FLight snow. Fog.15 mph88%30.06 "Hg5 mi
4:53 PM38 °FMostly cloudy.12 mph73%30.11 "Hg10 mi
3:53 PM39 °FOvercast.9 mph67%30.11 "Hg10 mi
2:53 PM39 °FCloudy.3 mph76%30.10 "Hg10 mi
1:53 PM38 °FMostly cloudy.6 mph76%30.12 "Hg10 mi
12:53 PM39 °FOvercast.6 mph73%30.12 "Hg10 mi
11:53 AM36 °FOvercast.3 mph82%30.16 "Hg8 mi
10:53 AM35 °FMostly cloudy.No wind85%30.20 "Hg7 mi
9:53 AM33 °FFog.6 mph92%30.22 "Hg3 mi
8:53 AM32 °FLight snow. Ice fog.6 mph88%30.22 "Hg1 mi
7:53 AM31 °FMostly cloudy.5 mph85%30.21 "Hg10 mi
Weather by CustomWeather, © 2014

See weather overviewHow to use our weather pages